Tracking 30744 objects as of 23-Jun-2025
HD Live streaming from Space Station
objects crossing your sky now

FENGYUN 1C DEB

Track FENGYUN 1C DEB now!
10-day predictions


NORAD ID: 29843
Int'l Code: 1999-025EM
Perigee: 665.3 km
Apogee: 944.3 km
Inclination: 99.0 °
Period: 100.8 minutes
Semi major axis: 7175 km
RCS: 0.054 m2 (small)
Launch date: May 10, 1999
Source: People's Republic of China (PRC)
Launch site: Taiyaun Space Center, China (TSC)

Note: This is SATELLITE DEBRIS
Your satellite tracking list
Your tracking list is empty




NASA's NSSDC Master Catalog

Two Line Element Set (TLE):
1 29843U 99025EM  25173.46739892  .00000320  00000-0  12172-3 0  9998
2 29843  99.0490   5.4371 0194431  72.0102 319.3822 14.28230372958083
Source of the keplerian elements: AFSPC